TimeCDT,TemperatureF,Dew PointF,Humidity,Sea Level PressureIn,VisibilityMPH,Wind Direction,Wind SpeedMPH,Gust SpeedMPH,PrecipitationIn,Events,Conditions,WindDirDegrees,DateUTC
12:52 AM,70.0,64.9,84,29.99,10.0,West,3.5,-,N/A,,Clear,270,2013-06-23 05:52:00
1:52 AM,69.1,64.9,87,29.99,10.0,Calm,Calm,-,N/A,,Clear,0,2013-06-23 06:52:00
2:52 AM,68.0,64.9,90,29.99,10.0,SW,4.6,-,N/A,,Scattered Clouds,220,2013-06-23 07:52:00
3:52 AM,66.9,64.9,93,29.97,8.0,SSW,5.8,-,N/A,,Clear,210,2013-06-23 08:52:00
4:52 AM,66.9,64.9,93,29.99,8.0,SSW,6.9,-,N/A,,Partly Cloudy,200,2013-06-23 09:52:00
5:52 AM,68.0,64.9,90,29.98,9.0,South,8.1,-,N/A,,Clear,190,2013-06-23 10:52:00
6:52 AM,69.1,64.9,87,29.96,10.0,South,9.2,-,N/A,,Clear,190,2013-06-23 11:52:00
7:52 AM,72.0,64.9,78,29.94,10.0,SSW,11.5,-,N/A,,Clear,200,2013-06-23 12:52:00
8:52 AM,77.0,64.9,66,29.94,10.0,SSW,11.5,19.6,N/A,,Clear,200,2013-06-23 13:52:00
9:52 AM,80.1,66.9,64,29.96,10.0,SSW,12.7,-,N/A,,Clear,210,2013-06-23 14:52:00
10:52 AM,82.0,66.9,60,29.97,10.0,SSW,16.1,-,N/A,,Clear,210,2013-06-23 15:52:00
11:52 AM,82.9,68.0,60,29.97,10.0,SSW,12.7,-,N/A,,Clear,210,2013-06-23 16:52:00
12:52 PM,84.0,69.1,61,29.95,10.0,South,12.7,-,N/A,,Clear,190,2013-06-23 17:52:00
1:52 PM,86.0,71.1,61,29.94,10.0,South,11.5,-,N/A,,Clear,190,2013-06-23 18:52:00
2:52 PM,87.1,71.1,59,29.91,10.0,South,8.1,-,N/A,,Clear,180,2013-06-23 19:52:00
3:52 PM,82.9,70.0,65,29.89,10.0,SE,9.2,-,N/A,,Clear,130,2013-06-23 20:52:00
4:52 PM,84.0,71.1,65,29.91,9.0,WSW,9.2,-,N/A,,Scattered Clouds,250,2013-06-23 21:52:00
5:20 PM,78.8,69.8,74,29.93,9.0,SW,5.8,-,0.00,Rain-Thunderstorm,Light Rain,220,2013-06-23 22:20:00
5:52 PM,84.0,70.0,63,29.86,10.0,SSE,12.7,-,0.00,,Clear,160,2013-06-23 22:52:00
6:52 PM,81.0,69.1,67,29.89,10.0,SSW,13.8,21.9,N/A,,Clear,200,2013-06-23 23:52:00
7:52 PM,78.1,68.0,71,29.90,10.0,SSW,11.5,18.4,N/A,,Clear,210,2013-06-24 00:52:00
8:52 PM,75.9,62.1,62,29.91,10.0,Variable,3.5,-,N/A,,Clear,0,2013-06-24 01:52:00
9:52 PM,71.1,63.0,75,29.95,10.0,South,4.6,-,N/A,,Clear,170,2013-06-24 02:52:00
10:52 PM,73.0,66.0,79,29.96,10.0,South,6.9,-,N/A,,Clear,190,2013-06-24 03:52:00
11:52 PM,73.9,68.0,82,29.95,10.0,South,9.2,-,N/A,,Clear,190,2013-06-24 04:52:00